Location: Góry Miechowskie
(50.3599°N, 20.1803°E)
Time: 04:21:10
(UTC+00:00)

SR - Pass Details

Date: 16 September 2024
Orbit: 578 x 855 km, 66.7° (Epoch: 04 October)

Event Time Altitude Azimuth Distance (km) Brightness Sun altitude
Rises 19:24:35 0° 324° (NW) 2,901 ? -23.7°
Reaches altitude 10° 19:26:49 10° 328° (NNW) 2,025 ? -24.0°
Enters shadow 19:31:18 63° 46° (NE) 751 ? -24.6°
